Location: Bridalveil Moraine
(37.7171°N, 119.6568°W)
Time: 10:48:16
(UTC+00:00)

BlueWalker 3 - Pass Details

Date: 07 August 2024
Orbit: 476 x 487 km, 53.2° (Epoch: 07 September)

Event Time Altitude Azimuth Distance (km) Brightness Sun altitude
Exits shadow 11:10:41 32° 307° (NW) 871 3.0 -20.6°
Maximum altitude 11:11:13 33° 325° (NW) 844 3.1 -20.5°
Drops below altitude 10° 11:14:42 10° 31° (NNE) 1,691 5.7 -20.0°
Sets 11:17:02 0° 42° (NE) 2,577 7.1 -19.6°
